Weather in Freising

Germany     48°24′16″N   11°44′49″E
В апреле 2022 года жителям России запретили посещать сайт meteo.paraplan.net по решению Генеральной прокуратуры. Аудитория сайта уменьшилась в 10 раз. Владельцы сайта не видят смысла в поддержке погодного сервера в таких условиях. Сайт будет закрыт в октябре.
temp.,
°C
wind,
m/s
gust,
m/s
humid.,
%
clouds,
%
prec.,
mm/h
press.,
hPa
HPBL,
m
30 september, fri
fri3023:00+8ssw2295100 0.4 100862
02:00+8sse1195100 0.5 100828
05:00+8nnw1195100 0.0 100912
08:00+8nne0094100 0.1 101020
11:00+10se0089100 0.0 1012256
14:00+12sse2275100 0.1 1012755
17:00+12sse227595 0.1 1013587
20:00+9se118866 0.1 101410
1 october, sat
sat123:00+7sse11915 0.0 101512
02:00+6sw22945 0.0 101614
05:00+6ssw349437 0.0 101655
08:00+6sw3892100 0.0 1016178
11:00+12wsw61269100 0.0 1015831
14:00+13wsw81863100 0.1 10141649
17:00+10wsw91790100 5.0 1015778
20:00+10wsw81590100 5.4 1017755
2 october, sun
sun223:00+10wsw71593100 0.7 1018642
02:00+11wsw71494100 2.3 1019641
05:00+11w6129460 0.4 1020670
08:00+10w51193100 0.5 1023716
11:00+13w61082100 0.1 10241144
14:00+14w6977100 0.7 10231051
17:00+14w5981100 0.6 1022858
20:00+11wsw3596100 1.3 1024143
3 october, mon
mon323:00+11sw3698100 0.5 1023206
02:00+12sw2599100 2.3 1022223
05:00+11s2599100 7.4 1021213
08:00+12wnw4897100 13.9 1022423
11:00+12w3698100 2.3 1022343
14:00+12w3697100 7.4 1022429
17:00+13nw359276 0.1 1022443
20:00+12w239685 0.2 102357
4 october, tue
tue423:00+12w239680 0.1 102377
02:00+12wsw119684 0.1 102213
05:00+10sw119770 0.0 102210
08:00+10s119749 0.0 102215
11:00+14sse1184100 0.0 1022326
14:00+17se1167100 0.0 1020962
17:00+17ese016793 0.0 1019866
20:00+13se228590 0.0 102010